Location: Lavington
(51.2833°N, 1.9833°W)
Time: 17:48:05
(UTC+00:00)

Cosmos 2026 Rocket - Pass Details

Date: 01 June 2020
Orbit: 939 x 1001 km, 82.9° (Epoch: 01 July)

Event Time Altitude Azimuth Distance (km) Brightness Sun altitude
Exits shadow 22:00:21 12° 172° (S) 2,558 5.6 -11.5°
Maximum altitude 22:06:03 63° 94° (E) 1,101 4.1 -11.9°
Drops below altitude 10° 22:12:21 10° 15° (NNE) 2,780 7.1 -12.4°
Sets 22:14:55 0° 12° (NNE) 3,737 7.9 -12.6°
